Location: Follega
(52.8850°N, 5.7362°E)
Time: 11:15:36
(UTC+00:00)

EXPRESS MD2 - Pass Details

Date: 01 June 2020
Orbit: 261 x 4024 km, 49.9° (Epoch: 10 July)

Event Time Altitude Azimuth Distance (km) Brightness Sun altitude
Rises 21:59:23 0° 247° (WSW) 2,460 6.7 -12.1°
Reaches altitude 10° 22:01:00 10° 243° (WSW) 1,801 5.9 -12.2°
Maximum altitude 22:04:52 59° 163° (SSE) 922 4.1 -12.4°
Drops below altitude 10° 22:12:50 10° 87° (E) 3,630 7.3 -12.8°
Sets 22:17:18 0° 85° (E) 5,286 8.2 -13.0°
